990  
ASUS45 KPSR 170910  
RWRAZ  
 
ARIZONA HOURLY REGIONAL WEATHER ROUNDUP  
NATIONAL WEATHER SERVICE PHOENIX AZ  
200 AM MST MON JUN 17 2024  
 
NOTE: FAIR INDICATES FEW OR NO CLOUDS BELOW 12,000 FEET WITH NO  
SIGNIFICANT WEATHER AND/OR S TO VISIBILITY
.  
 
AZZ001>003-036-171000-  
NORTHWEST ARIZONA  
 
CITY SKY/WX TMP DP RH WIND PRES REMARKS
 
BULLHEAD CITY CLEAR 90 28 11 CALM 29.47S TC 32  
KINGMAN CLEAR 73 30 20 S12 29.68F TC 23  

 
 
AZZ004>008-015-016-018-171000-  
NORTH CENTRAL ARIZONA  
 
CITY SKY/WX TMP DP RH WIND PRES REMARKS
 
GRAND CANYON CLEAR 43 18 36 CALM 29.93F TC 6  
PRESCOTT CLEAR 66 28 24 CALM 29.83F TC 19  
FLAGSTAFF CLEAR 58 22 24 W6 29.97F TC 14  
PAYSON CLEAR 68 21 17 CALM 29.88S TC 20  
PAGE CLEAR 80 19 10 S8 29.71F TC 27  

 
 
AZZ009>014-017-171000-  
NORTHEAST ARIZONA  
 
CITY SKY/WX TMP DP RH WIND PRES REMARKS
 
WINSLOW CLEAR 63 19 18 S3 29.83F TC 17  
WINDOW ROCK CLEAR 60 19 20 SW7 29.96F TC 16  
SHOW LOW CLEAR 63 21 20 S8 29.97F TC 17  

 
 
AZZ540-542>544-546-548-171000-  
GREATER PHOENIX AREA  
 
CITY SKY/WX TMP DP RH WIND PRES REMARKS
 
PHOENIX CLEAR 91 37 15 E6 29.55S TC 33  
BUCKEYE CLEAR 82 39 21 CALM 29.57S TC 28  
LUKE AFB CLEAR 88 39 17 S10 29.54R TC 31  
DEER VALLEY CLEAR 82 37 20 W5 29.59S TC 28  
SCOTTSDALE CLEAR 86 40 19 CALM 29.60S TC 30  
MESA-FALCON CLEAR 82 38 20 E3 29.58S TC 28  
MESA-GATEWAY CLEAR 80 30 16 E10 29.60S TC 26  

 
 
AZZ539-553-171000-  
SOUTHWEST MARICOPA COUNTY AND PINAL COUNTY  
 
CITY SKY/WX TMP DP RH WIND PRES REMARKS
 
CASA GRANDE CLEAR 83 39 21 E5 29.61F TC 28  
GILA BEND CLEAR 88 39 18 N6 29.55R TC 31  

 
 
AZZ503-504-507>509-171000-  
SOUTHEAST ARIZONA  
 
CITY SKY/WX TMP DP RH WIND PRES REMARKS
 
TUCSON CLEAR 82 38 20 S6 29.73F TC 28  
DAVIS-MONTHAN CLEAR 82 36 18 SE7 29.71S TC 28  
NOGALES CLEAR 76 40 27 S6 29.83F TC 24  
SIERRA VISTA CLEAR 78 38 23 SW9 29.89R TC 26  
DOUGLAS CLEAR 75 32 20 CALM 29.85S TC 24  
SAFFORD CLEAR 83 24 11 NW10 29.71S TC 28  

 
 
AZZ532-171000-  
SOUTHWEST ARIZONA  
 
CITY SKY/WX TMP DP RH WIND PRES REMARKS
 
YUMA CLEAR 84 33 16 NW3 29.51F TC 29  

 
 
CAZ041-043-047-048-061-525>527-560>570-171000-  
SOUTHERN CALIFORNIA  
 
CITY SKY/WX TMP DP RH WIND PRES REMARKS
 
DOWNTOWN L.A. NOT AVBL  
L.A. AIRPORT CLOUDY 64 57 78 SE6 29.72F TC 18  
SAN DIEGO CLOUDY 62 56 80 S9 29.75F TC 17  
BURBANK CLOUDY 62 57 83 S8 29.73S TC 17  
ONTARIO MOCLDY 61 54 77 W6 29.72F TC 16  
RIVERSIDE CLOUDY 60 56 86 W3 29.72F TC 16  
PALM SPRINGS CLEAR 82 49 31 NW7 29.51F TC 28  
EL CENTRO NAS CLEAR N/A N/A N/A W10 29.51F  
IMPERIAL CLEAR 81 36 19 W13 29.49S TC 27  
BLYTHE CLEAR 81 44 27 S7 29.49F TC 27  
NEEDLES CLEAR 87 30 13 SW10 29.50S TC 31  

 
 
NVZ020-UTZ003-171000-  
SOUTHERN NEVADA-UTAH  
 
CITY SKY/WX TMP DP RH WIND PRES REMARKS
 
LAS VEGAS CLEAR 85 28 12 S16G28 29.53F TC 29  
SALT LAKE CITY PTCLDY 66 40 38 CALM 29.63S TC 19  

 
 
NMZ009-TXZ055-171000-  
NEW MEXICO-WEST TEXAS  
 
CITY SKY/WX TMP DP RH WIND PRES REMARKS
 
ALBUQUERQUE CLEAR 76 19 11 S7 29.86S TC 24  
EL PASO CLEAR 87 29 12 SW12 29.75F TC 31  

 
 
   
.......................KEY.....................
 
 
SKY/WX - SKY CONDITION/WEATHER  
TMP - TEMPERATURE IN FAHRENHEIT  
DP - DEW POINT IN FAHRENHEIT  
RH - RELATIVE HUMIDITY IN PERCENT  
WIND - DIRECTION AND SPEED IN MILES PER HOUR (MPH)  
VRB - VARIABLE WIND DIRECTION  
PRES - MEAN SEA LEVEL PRESSURE IN INCHES OF MERCURY  
F - FALLING PRESSURE R - RISING PRESSURE  
S - STEADY PRESSURE  
VSB - VISIBILITY IN MILES  
HX - HEAT INDEX IN FAHRENHEIT  
WCI - WIND CHILL INDEX IN FAHRENHEIT  
TC - TEMPERATURE IN CELSIUS WHICH IS ALSO KNOWN AS  
TEMPERATURE IN CENTIGRADE  
AFB - AIR FORCE BASE  
LUKE AFB IS LUKE AIR FORCE BASE  
DAVIS-MONTHAN IS DAVIS-MONTHAN AIR FORCE BASE  
NAS - NAVAL AIR STATION  
EL CENTRO NAS IS EL CENTRO NAVAL AIR STATION  
N/A - NOT AVAILABLE  
 
 
 
CLICK HERE TO GO TO PREVIOUS BULLETINS.

The Nexlab AZ Page Main Text Page